Time,TemperatureF,DewpointF,PressureIn,WindDirection,WindDirectionDegrees,WindSpeedMPH,WindSpeedGustMPH,Humidity,HourlyPrecipIn,Conditions,Clouds,dailyrainin,SoftwareType,DateUTC
2015-04-28 00:01:00,47.2,45.0,29.73,NE,35,3.0,7.0,90,0.01,,,0.00,weatherlink.com 1.10,2015-04-28 04:01:00,
2015-04-28 00:16:00,47.7,44.0,29.73,ENE,63,2.0,8.0,87,0.00,,,0.00,weatherlink.com 1.10,2015-04-28 04:16:00,
2015-04-28 00:31:00,47.6,43.0,29.73,NNE,25,2.0,5.0,85,0.00,,,0.00,weatherlink.com 1.10,2015-04-28 04:31:00,
2015-04-28 00:46:00,47.9,43.0,29.73,NE,36,3.0,5.0,84,0.00,,,0.00,weatherlink.com 1.10,2015-04-28 04:46:00,
2015-04-28 01:01:00,48.1,43.0,29.73,NE,35,0.0,3.0,83,0.00,,,0.00,weatherlink.com 1.10,2015-04-28 05:01:00,
2015-04-28 01:16:00,48.5,43.0,29.73,ENE,62,3.0,6.0,80,0.00,,,0.00,weatherlink.com 1.10,2015-04-28 05:16:00,
2015-04-28 01:31:00,49.0,42.0,29.73,ENE,69,2.0,7.0,78,0.00,,,0.00,weatherlink.com 1.10,2015-04-28 05:31:00,
2015-04-28 01:46:00,49.1,43.0,29.73,ESE,122,1.0,8.0,78,0.00,,,0.00,weatherlink.com 1.10,2015-04-28 05:46:00,
2015-04-28 02:16:00,49.4,42.0,29.74,ENE,77,5.0,8.0,76,0.00,,,0.00,weatherlink.com 1.10,2015-04-28 06:16:00,
2015-04-28 02:31:00,49.3,42.0,29.73,ENE,60,3.0,12.0,76,0.00,,,0.00,weatherlink.com 1.10,2015-04-28 06:31:00,
2015-04-28 03:00:00,48.3,41.0,29.74,ENE,65,1.0,7.0,75,0.00,,,0.00,weatherlink.com 1.10,2015-04-28 07:00:00,
2015-04-28 03:16:00,47.3,40.0,29.75,NNE,30,2.0,4.0,77,0.00,,,0.00,weatherlink.com 1.10,2015-04-28 07:16:00,
2015-04-28 03:31:00,46.7,40.0,29.75,NNE,30,0.0,5.0,78,0.00,,,0.00,weatherlink.com 1.10,2015-04-28 07:31:00,
2015-04-28 03:46:00,46.1,40.0,29.75,NE,53,0.0,3.0,79,0.00,,,0.00,weatherlink.com 1.10,2015-04-28 07:46:00,
2015-04-28 04:01:00,45.3,40.0,29.75,ESE,103,0.0,2.0,80,0.00,,,0.00,weatherlink.com 1.10,2015-04-28 08:01:00,
2015-04-28 04:16:00,45.1,39.0,29.75,ENE,77,2.0,4.0,80,0.00,,,0.00,weatherlink.com 1.10,2015-04-28 08:16:00,
2015-04-28 04:31:00,45.7,39.0,29.76,East,87,2.0,6.0,77,0.00,,,0.00,weatherlink.com 1.10,2015-04-28 08:31:00,
2015-04-28 04:46:00,45.8,39.0,29.76,NNE,27,3.0,6.0,76,0.00,,,0.00,weatherlink.com 1.10,2015-04-28 08:46:00,
2015-04-28 05:01:00,45.3,38.0,29.77,East,85,1.0,5.0,76,0.00,,,0.00,weatherlink.com 1.10,2015-04-28 09:01:00,
2015-04-28 05:16:00,45.2,38.0,29.78,North,352,1.0,6.0,77,0.00,,,0.00,weatherlink.com 1.10,2015-04-28 09:16:00,
2015-04-28 05:32:00,45.1,38.0,29.79,WNW,294,1.0,4.0,77,0.00,,,0.00,weatherlink.com 1.10,2015-04-28 09:32:00,
2015-04-28 05:46:00,44.3,38.0,29.80,East,96,2.0,2.0,78,0.00,,,0.00,weatherlink.com 1.10,2015-04-28 09:46:00,
2015-04-28 06:01:00,42.8,37.0,29.80,North,9,0.0,1.0,81,0.00,,,0.00,weatherlink.com 1.10,2015-04-28 10:01:00,
2015-04-28 06:17:00,41.5,37.0,29.81,NE,35,0.0,1.0,83,0.00,,,0.00,weatherlink.com 1.10,2015-04-28 10:17:00,
2015-04-28 06:32:00,40.3,37.0,29.81,NE,35,0.0,0.0,87,0.00,,,0.00,weatherlink.com 1.10,2015-04-28 10:32:00,